Stations météo

Publicité
Biscarosse, France (7503): Température de l'air & dewpoint: 20.09.2017 11:00:00 - 26.09.2017 11:00:00 (CEST)Biscarosse, France (7503): Température de l'air 5cm: 20.09.2017 11:00:00 - 26.09.2017 11:00:00 (CEST)Biscarosse, France (7503): Température de l'air -20cm & Température de l'air -100cm: 20.09.2017 11:00:00 - 26.09.2017 11:00:00 (CEST)Biscarosse, France (7503): Vitesse du vent & gusts: 20.09.2017 11:00:00 - 26.09.2017 11:00:00 (CEST)Biscarosse, France (7503): Direction du vent: 20.09.2017 11:00:00 - 26.09.2017 11:00:00 (CEST)Biscarosse, France (7503): reduced air pressure: 20.09.2017 11:00:00 - 26.09.2017 11:00:00 (CEST)Biscarosse, France (7503): visibility: 20.09.2017 11:00:00 - 26.09.2017 11:00:00 (CEST)Biscarosse, France (7503): Ensoleillement: 20.09.2017 11:00:00 - 26.09.2017 11:00:00 (CEST)Biscarosse, France (7503): Quantités de précipitations: 20.09.2017 11:00:00 - 26.09.2017 11:00:00 (CEST)
Date & Time tt [°C] td [°C] tt 5cm [°C] tt -20cm [°C] tt -100cm [°C] ff [km/h] ff [knt] fx [km/h] fx [knt] dd ppp [hPa] vv [km] sd [min] rr [mm]
26.09.2017 11:00:00 19,1 12,1 22,2 20,4 21,7 4 2 8 5 WSW 1022,9 20 60 0,0
26.09.2017 10:00:00 17,3 13,2 15,4 20,5 21,8 4 2 9 5 SSE 1022,8 25 34 0,0
26.09.2017 09:00:00 14,8 11,9 13,8 20,7 21,7 6 3 16 9 WNW 1022,8 20 0 0,0
26.09.2017 08:00:00 14,0 11,2 12,4 20,9 21,7 13 7 18 10 NW 1022,5 25 0 0,0
26.09.2017 07:00:00 12,9 10,3 11,6 21,2 21,7 11 6 20 11 NW 1022,3 19 0 0,0
26.09.2017 06:00:00 13,9 10,9 11,4 21,5 21,7 14 7 20 11 NW 1022,3 20 0 0,0
26.09.2017 05:00:00 12,9 11,0 11,2 21,8 21,7 11 6 18 10 NW 1022,5 20 0 0,0
26.09.2017 04:00:00 12,8 10,7 11,6 22,1 21,7 10 5 18 10 WNW 1022,4 19 0 0,0
26.09.2017 03:00:00 14,3 11,4 12,8 22,4 21,7 14 7 21 12 NW 1022,8 20 0 0,0
26.09.2017 02:00:00 15,6 11,2 13,9 22,6 21,7 13 7 21 11 WNW 1022,8 20 0 0,0
26.09.2017 01:00:00 16,5 12,1 15,3 23,0 21,7 14 8 24 13 WNW 1023,0 19 0 0,0
26.09.2017 00:00:00 16,9 12,6 15,7 23,2 21,6 14 8 27 15 NW 1023,2 18 0 0,0
25.09.2017 23:00:00 17,0 12,5 16,1 23,5 21,6 18 10 27 14 NW 1023,3 16 0 0,0
25.09.2017 22:00:00 17,5 13,0 16,5 23,8 21,7 21 11 29 16 NW 1023,0 18 0 0,0
25.09.2017 21:00:00 17,6 12,9 16,7 23,9 21,6 22 12 34 18 NW 1022,8 16 0 0,0
25.09.2017 20:00:00 18,0 13,3 17,5 24,0 21,6 26 14 34 18 W 1022,8 15 0 0,0
25.09.2017 19:00:00 18,7 13,1 18,9 23,9 21,6 26 14 35 19 NW 1022,4 18 25 0,0
25.09.2017 18:00:00 19,4 14,0 20,3 23,6 21,6 26 14 34 19 WNW 1022,0 14 45 0,0
25.09.2017 17:00:00 20,0 14,4 23,5 23,2 21,6 29 16 36 20 W 1021,6 16 54 0,0
25.09.2017 16:00:00 20,0 14,4 22,4 22,8 21,6 29 16 35 19 W 1021,7 17 51 0,0
25.09.2017 15:00:00 20,0 14,4 23,8 22,3 21,6 26 14 34 18 W 1021,5 18 47 0,0
25.09.2017 14:00:00 20,4 15,2 24,4 21,9 21,6 24 13 33 18 W 1021,3 25 57 0,0
25.09.2017 13:00:00 20,0 15,2 19,7 21,7 21,6 27 15 36 19 W 1021,2 25 48 0,0
25.09.2017 12:00:00 19,6 15,7 19,6 21,7 21,6 30 16 39 21 W 1021,1 13 26 0,0
25.09.2017 11:00:00 19,9 16,5 19,2 21,7 21,6 25 13 37 20 SW 1020,9 16 41 0,0
25.09.2017 10:00:00 19,2 16,1 18,1 21,8 21,6 23 12 32 17 W 1020,4 12 41 0,0
25.09.2017 09:00:00 18,4 16,0 17,4 22,0 21,5 26 14 31 17 W 1020,1 10 0 0,0
25.09.2017 08:00:00 18,5 16,1 17,2 22,2 21,5 25 13 31 17 WSW 1020,0 25 0 0,0
25.09.2017 07:00:00 18,2 16,2 16,9 22,4 21,5 13 7 26 14 WNW 1019,5 8 0 0,0
25.09.2017 06:00:00 18,0 16,3 16,6 22,7 21,5 21 11 26 14 W 1018,8 6 0 0,0
25.09.2017 05:00:00 17,2 15,7 16,4 22,9 21,4 9 5 21 11 WNW 1019,3 3,3 0 0,0
25.09.2017 04:00:00 17,8 16,1 17,0 23,2 21,4 12 7 33 18 N 1018,8 6 0 1,2
25.09.2017 03:00:00 18,8 16,4 18,5 23,3 21,4 29 16 41 22 NNW 1019,0 8 0 0,0
25.09.2017 02:00:00 19,1 16,7 18,7 23,6 21,4 31 17 40 22 WNW 1018,7 7 0 0,0
25.09.2017 01:00:00 19,6 17,7 18,5 23,8 21,4 31 17 37 20 W 1019,0 7 0 0,0
25.09.2017 00:00:00 19,1 17,2 16,4 24,1 21,3 19 11 25 13 WNW 1018,4 2,4 0 0,0
24.09.2017 23:00:00 17,6 14,7 16,2 24,4 21,3 6 4 9 5 NNW 1017,7 11 0 0,0
24.09.2017 22:00:00 18,1 15,7 17,0 24,6 21,4 6 3 10 5 N 1017,5 6 0 0,0
24.09.2017 21:00:00 19,1 16,7 18,5 24,8 21,3 6 4 16 9 N 1017,4 2,6 0 0,0
24.09.2017 20:00:00 19,9 17,3 18,9 24,8 21,4 11 6 17 9 NNW 1017,5 2,8 2 0,0
24.09.2017 19:00:00 21,6 17,2 21,7 24,6 21,3 8 4 23 13 N 1017,2 4,5 24 0,0
24.09.2017 18:00:00 22,7 17,4 23,5 24,2 21,3 18 10 25 13 N 1017,7 12 60 0,0
24.09.2017 17:00:00 22,2 17,3 28,4 23,7 21,3 17 9 21 11 NNW 1018,0 14 60 0,0
24.09.2017 16:00:00 22,3 17,9 27,6 23,0 21,3 15 8 19 10 NNW 1018,1 17 60 0,0
24.09.2017 15:00:00 22,4 17,5 29,3 22,3 21,3 9 5 11 6 NW 1018,5 18 60 0,0
24.09.2017 14:00:00 22,9 17,8 30,2 21,7 21,3 6 4 10 5 W 1019,0 18 60 0,0
24.09.2017 13:00:00 21,9 17,5 27,7 21,2 21,3 6 4 10 5 W 1019,4 19 60 0,0
24.09.2017 12:00:00 20,8 17,2 27,5 20,9 21,3 8 5 10 5 WNW 1019,6 19 60 0,0
24.09.2017 11:00:00 20,8 17,4 24,7 20,8 21,3 5 3 8 5 WSW 1019,4 15 55 0,0
24.09.2017 10:00:00 19,8 17,8 17,7 20,9 21,3 3 1 6 4 ESE 1019,3 18 60 0,0
24.09.2017 09:00:00 17,1 16,1 14,9 21,2 21,3 5 3 9 5 SE 1019,2 6 27 0,0
24.09.2017 08:00:00 16,4 15,4 13,5 21,4 21,2 6 4 7 4 SE 1019,0 6 0 0,0
24.09.2017 07:00:00 16,5 15,4 14,4 21,6 21,2 5 3 6 4 SSE 1018,8 9 0 0,0
24.09.2017 06:00:00 16,6 15,3 14,1 21,8 21,2 4 2 5 3 S 1018,8 6 0 0,0
24.09.2017 05:00:00 17,4 16,3 14,9 22,1 21,2 4 2 6 4 SE 1018,7 6 0 0,0
24.09.2017 04:00:00 18,0 16,7 14,8 22,4 21,2 0 0 8 4 N 1019,1 7 0 0,0
24.09.2017 03:00:00 17,4 15,4 15,0 22,7 21,1 4 2 9 5 S 1019,2 8 0 0,0
24.09.2017 02:00:00 17,1 14,0 15,1 23,0 21,1 5 3 6 3 SE 1019,1 12 0 0,0
24.09.2017 01:00:00 18,5 14,8 - - - 4 2 11 6 WSW 1019,0 5 - 0,0
24.09.2017 00:00:00 19,2 13,6 16,9 23,6 21,1 10 5 13 7 E 1018,5 20 0 0,0
23.09.2017 23:00:00 18,9 12,9 17,3 23,8 21,1 9 5 10 5 ENE 1018,4 20 0 0,0
23.09.2017 22:00:00 20,0 13,5 18,0 24,0 21,1 8 4 14 7 ENE 1018,4 20 0 0,0
23.09.2017 21:00:00 20,5 12,7 19,1 24,1 21,1 6 3 10 6 NE 1018,0 20 0 0,0
23.09.2017 20:00:00 22,1 13,2 20,1 24,0 21,1 5 3 6 4 N 1017,8 19 0 0,0
23.09.2017 19:00:00 24,8 13,4 23,7 23,7 21,1 2 1 5 3 WNW 1017,5 18 58 0,0
23.09.2017 18:00:00 25,7 13,5 25,8 23,2 21,1 2 1 13 7 WNW 1017,3 20 60 0,0
23.09.2017 17:00:00 25,4 13,9 31,4 22,4 21,1 10 6 22 12 WSW 1017,5 20 60 0,0
23.09.2017 16:00:00 26,4 12,5 32,3 21,6 21,1 13 7 29 16 E 1017,7 20 60 0,0
23.09.2017 15:00:00 26,1 13,2 31,6 20,9 21,1 9 5 23 12 SE 1018,1 20 60 0,0
23.09.2017 14:00:00 24,9 13,1 29,9 20,2 21,1 11 6 24 13 SE 1018,5 20 60 0,0
23.09.2017 13:00:00 23,4 14,7 27,3 19,7 21,2 10 5 23 13 E 1019,0 20 60 0,0
23.09.2017 12:00:00 21,6 14,5 24,1 19,4 21,2 9 5 27 15 ESE 1019,5 20 60 0,0
23.09.2017 11:00:00 19,4 14,2 19,7 19,4 21,1 11 6 24 13 ESE 1019,3 20 60 0,0
23.09.2017 10:00:00 15,9 13,6 14,5 19,6 21,1 9 5 21 11 ESE 1019,4 20 28 0,2
23.09.2017 09:00:00 13,6 12,3 13,1 19,7 21,1 11 6 26 14 ESE 1019,8 18 24 0,0
23.09.2017 08:00:00 13,4 12,3 12,4 20,0 21,1 16 9 29 16 E 1019,6 16 0 0,0
23.09.2017 07:00:00 13,3 12,0 12,7 20,2 21,0 11 6 21 12 ESE 1019,9 18 0 0,0
23.09.2017 06:00:00 13,4 12,3 12,5 20,6 21,1 11 6 21 11 E 1020,3 20 0 0,0
23.09.2017 05:00:00 13,4 12,1 12,7 20,8 21,0 11 6 23 12 E 1020,7 20 0 0,0
23.09.2017 04:00:00 13,6 12,0 13,1 21,1 21,0 13 7 22 12 E 1021,2 20 0 0,0
23.09.2017 03:00:00 14,8 12,8 14,2 21,4 21,0 11 6 24 13 E 1021,9 20 0 0,0
23.09.2017 02:00:00 15,2 12,7 14,8 21,6 21,0 14 7 22 12 E 1022,2 20 0 0,0
23.09.2017 01:00:00 15,6 12,9 15,2 21,9 21,0 13 7 21 11 ENE 1022,2 20 0 0,0
23.09.2017 00:00:00 15,7 13,2 15,3 22,2 21,0 11 6 16 9 NE 1022,5 20 0 0,0
22.09.2017 23:00:00 16,0 13,7 14,6 22,5 21,0 10 5 16 9 ENE 1022,5 20 0 0,0
22.09.2017 22:00:00 15,7 13,2 - - - 8 4 15 8 NE 1022,5 20 - 0,0
22.09.2017 21:00:00 16,5 13,4 15,7 22,9 21,0 9 5 20 11 N 1022,6 20 0 0,0
22.09.2017 20:00:00 17,4 12,9 16,6 22,9 21,0 14 7 20 11 N 1022,2 20 7 0,0
22.09.2017 19:00:00 18,3 12,5 18,7 22,7 21,0 11 6 16 8 NNW 1022,1 20 60 0,0
22.09.2017 18:00:00 19,0 12,7 19,9 22,4 21,0 9 5 15 8 NW 1022,1 20 60 0,0
22.09.2017 17:00:00 19,3 12,1 24,7 21,8 21,0 12 7 21 11 NNW 1022,2 20 60 0,0
22.09.2017 16:00:00 19,5 12,5 25,3 21,3 21,0 16 9 21 11 NNW 1022,7 20 60 0,0
22.09.2017 15:00:00 19,6 12,6 23,8 20,8 21,0 16 9 22 12 NW 1022,7 20 32 0,0
22.09.2017 14:00:00 19,5 12,3 22,3 20,4 21,0 14 8 21 11 NNW 1022,9 20 23 0,0
22.09.2017 13:00:00 19,5 13,2 20,5 20,2 21,0 18 10 22 12 NNW 1022,9 20 27 0,0
22.09.2017 12:00:00 18,2 13,5 20,0 20,1 21,0 12 6 16 9 NNW 1022,9 20 0 0,0
22.09.2017 11:00:00 17,4 13,7 18,1 20,1 21,0 4 2 12 6 ENE 1022,4 20 0 0,0
22.09.2017 10:00:00 16,7 14,2 17,1 20,1 21,0 8 4 13 7 E 1022,3 25 0 0,0
22.09.2017 09:00:00 16,5 14,5 16,3 20,2 20,9 6 4 10 5 ENE 1021,9 25 0 0,0
22.09.2017 08:00:00 16,2 14,6 16,0 20,4 20,9 6 3 12 6 NE 1021,5 20 0 0,0
22.09.2017 07:00:00 16,2 14,6 16,0 20,5 20,9 7 4 11 6 ENE 1021,2 20 0 0,0
22.09.2017 06:00:00 16,9 14,9 - - - 5 3 13 7 NE 1020,9 20 - 0,0
22.09.2017 05:00:00 16,9 15,1 16,7 20,7 20,9 7 4 11 6 NNE 1021,2 20 0 0,0
22.09.2017 04:00:00 16,9 15,1 15,6 20,9 20,9 7 4 14 8 NNE 1021,1 15 0 0,0
22.09.2017 03:00:00 16,1 13,9 14,6 21,2 20,9 9 5 15 8 N 1021,3 20 0 0,0
22.09.2017 02:00:00 15,8 13,3 14,8 21,4 20,8 8 4 16 9 N 1021,2 20 0 0,0
22.09.2017 01:00:00 15,8 13,5 14,4 21,7 20,8 2 1 4 2 ENE 1020,9 20 0 0,0
22.09.2017 00:00:00 15,9 13,2 14,4 21,9 20,8 4 2 4 2 ENE 1020,6 20 0 0,0
21.09.2017 23:00:00 15,8 12,0 14,8 22,2 20,8 4 2 18 10 NE 1020,3 20 0 0,0
21.09.2017 22:00:00 17,5 12,4 16,1 22,4 20,8 16 8 21 12 NW 1020,2 20 0 0,0
21.09.2017 21:00:00 18,1 12,3 17,3 22,6 20,8 16 9 24 13 NNW 1019,7 20 0 0,0
21.09.2017 20:00:00 18,6 12,1 17,8 22,6 20,8 20 11 24 13 N 1019,1 20 0 0,0
21.09.2017 19:00:00 19,1 13,3 19,5 22,4 20,8 17 9 22 12 NW 1018,5 20 31 0,0
21.09.2017 18:00:00 19,6 13,1 21,3 22,1 20,9 14 8 17 9 NW 1018,1 20 53 0,0
21.09.2017 17:00:00 19,6 12,8 23,3 21,4 20,8 10 5 15 8 NW 1017,8 20 45 0,0
21.09.2017 16:00:00 20,6 13,1 26,4 20,8 20,9 10 5 13 7 W 1017,4 19 60 0,0
21.09.2017 15:00:00 20,8 12,5 27,5 19,9 20,8 9 5 11 6 W 1017,3 25 60 0,0
21.09.2017 14:00:00 20,0 11,5 27,2 19,1 20,8 8 4 11 6 W 1017,4 20 60 0,0
21.09.2017 13:00:00 20,0 11,2 24,8 18,6 20,8 8 5 13 7 W 1017,6 25 56 0,0
21.09.2017 12:00:00 20,2 10,3 23,6 18,2 20,9 7 4 10 5 WSW 1017,4 20 60 0,0
21.09.2017 11:00:00 17,3 9,2 18,4 18,2 20,9 8 4 13 7 E 1017,2 20 60 0,0
21.09.2017 10:00:00 14,3 7,3 - - - 5 3 26 14 ESE 1017,2 20 - 0,0
21.09.2017 09:00:00 12,3 6,6 10,8 18,6 20,8 15 8 23 12 E 1016,9 25 28 0,0
21.09.2017 08:00:00 11,3 6,0 10,6 18,9 20,8 14 8 21 11 NE 1016,8 20 0 0,0
21.09.2017 07:00:00 11,6 6,1 10,9 19,2 20,8 13 7 22 12 NE 1016,5 25 0 0,0
21.09.2017 06:00:00 12,0 6,3 11,4 19,4 20,8 15 8 23 13 NE 1016,7 20 0 0,0
21.09.2017 05:00:00 12,5 6,3 11,7 19,8 20,8 16 8 23 13 NE 1016,8 20 0 0,0
21.09.2017 04:00:00 13,0 6,3 12,3 20,1 20,7 15 8 23 13 ENE 1017,1 20 0 0,0
21.09.2017 03:00:00 13,5 6,4 12,7 20,4 20,7 16 8 25 14 NE 1017,5 14 0 0,0
21.09.2017 02:00:00 13,4 6,7 12,4 20,8 20,8 14 7 20 11 NE 1017,8 20 0 0,0
21.09.2017 01:00:00 14,0 6,8 13,0 21,1 20,7 12 6 23 13 NE 1017,8 20 0 0,0
21.09.2017 00:00:00 14,8 7,3 14,2 21,4 20,7 14 8 27 14 ENE 1017,9 20 0 0,0
20.09.2017 23:00:00 15,5 7,8 14,7 21,7 20,7 13 7 22 12 NE 1018,2 20 0 0,0
20.09.2017 22:00:00 16,5 7,9 15,4 21,9 20,7 11 6 18 10 NE 1018,5 20 0 0,0
20.09.2017 21:00:00 17,8 8,6 16,6 22,1 20,8 11 6 18 10 NE 1018,6 20 0 0,0
20.09.2017 20:00:00 19,7 9,3 19,2 22,0 20,8 7 4 15 8 NE 1018,6 20 9 0,0
20.09.2017 19:00:00 21,8 8,3 22,2 21,7 20,8 6 3 13 7 NE 1019,0 20 60 0,0
20.09.2017 18:00:00 22,9 7,0 23,6 21,2 20,8 9 5 16 9 WSW 1019,2 20 60 0,0
20.09.2017 17:00:00 22,8 7,3 28,3 20,5 20,8 8 5 21 11 SSE 1019,8 20 60 0,0
20.09.2017 16:00:00 22,2 6,8 28,2 19,7 20,8 8 5 21 12 NNE 1020,4 20 60 0,0
20.09.2017 15:00:00 21,2 7,1 27,2 18,9 20,8 9 5 23 12 ENE 1021,0 20 60 0,0
20.09.2017 14:00:00 20,2 7,2 26,1 18,2 20,8 12 6 24 13 E 1021,5 20 60 0,0
20.09.2017 13:00:00 19,6 8,6 23,1 17,6 20,8 11 6 26 14 E 1022,1 20 60 0,0
20.09.2017 12:00:00 17,9 9,5 20,6 17,3 20,8 13 7 22 12 ENE 1022,8 20 60 0,0
20.09.2017 11:00:00 16,0 9,6 18,7 17,2 20,8 9 5 19 11 E 1023,3 20 60 0,0

tt = Température de l'air
td = dewpoint
tt 5cm = Température de l'air 5cm
tt -20cm = Température de l'air -20cm
tt -100cm = Température de l'air -100cm
ff = Vitesse du vent
fx = gusts
dd = Direction du vent
ppp = reduced air pressure
vv = visibility
sd = Ensoleillement
rr = Quantités de précipitations

stations d'obs. à proximité